• In Hungary
  • List of Countries
  • For 7 days
  • Water Temperature
  • Satellite Maps
  • Weather Map
  • News
  • Weather Widgets
  • user-avatar
    Login

    Hourly Weather Yanovo-Grushevskiy

    Today, 26 May, Saturday

    Time Temperature Precipitation Wind Pressure Humidity
    00:00 +20°C° 0 mm 4 mps 758 mmHg 90%
    01:00 +19°C° 0 mm 5 mps 758 mmHg 90%
    02:00 +19°C° 0 mm 6 mps 759 mmHg 89%
    03:00 +18°C° 0 mm 7 mps 759 mmHg 89%
    04:00 +17°C° 0.1 mm 8 mps 760 mmHg 86%
    05:00 +16°C° 0.1 mm 8 mps 761 mmHg 84%
    06:00 +15°C° 0.1 mm 9 mps 761 mmHg 81%
    07:00 +15°C° 0 mm 9 mps 762 mmHg 77%
    08:00 +15°C° 0 mm 9 mps 763 mmHg 73%
    09:00 +15°C° 0 mm 9 mps 764 mmHg 68%
    10:00 +16°C° 0 mm 9 mps 764 mmHg 64%
    11:00 +17°C° 0 mm 10 mps 765 mmHg 60%
    12:00 +18°C° 0 mm 10 mps 765 mmHg 55%
    13:00 +18°C° 0 mm 10 mps 765 mmHg 53%
    14:00 +18°C° 0 mm 9 mps 766 mmHg 51%
    15:00 +18°C° 0 mm 9 mps 766 mmHg 49%
    16:00 +18°C° 0 mm 9 mps 766 mmHg 51%
    17:00 +17°C° 0 mm 8 mps 767 mmHg 53%
    18:00 +17°C° 0 mm 7 mps 767 mmHg 55%
    19:00 +16°C° 0 mm 7 mps 767 mmHg 55%
    20:00 +14°C° 0 mm 6 mps 768 mmHg 55%
    21:00 +13°C° 0 mm 6 mps 768 mmHg 55%
    22:00 +13°C° 0 mm 6 mps 769 mmHg 55%
    23:00 +11°C° 0 mm 6 mps 769 mmHg 54%

    Tomorrow, 27 May, Sunday

    Time Temperature Precipitation Wind Pressure Humidity
    00:00 +11°C° 0 mm 7 mps 769 mmHg 54%
    01:00 +10°C° 0 mm 6 mps 769 mmHg 55%
    02:00 +10°C° 0 mm 6 mps 769 mmHg 55%
    03:00 +9°C° 0 mm 6 mps 769 mmHg 56%
    04:00 +9°C° 0 mm 6 mps 770 mmHg 59%
    05:00 +9°C° 0 mm 7 mps 770 mmHg 61%
    06:00 +9°C° 0 mm 7 mps 770 mmHg 64%
    07:00 +10°C° 0 mm 7 mps 770 mmHg 61%
    08:00 +12°C° 0 mm 7 mps 770 mmHg 58%
    09:00 +13°C° 0 mm 8 mps 770 mmHg 54%
    10:00 +15°C° 0 mm 8 mps 770 mmHg 53%
    11:00 +16°C° 0 mm 8 mps 769 mmHg 51%
    12:00 +18°C° 0 mm 8 mps 769 mmHg 49%
    13:00 +18°C° 0 mm 7 mps 769 mmHg 48%
    14:00 +20°C° 0 mm 7 mps 768 mmHg 48%
    15:00 +20°C° 0 mm 7 mps 768 mmHg 48%
    16:00 +20°C° 0 mm 6 mps 767 mmHg 51%
    17:00 +20°C° 0 mm 6 mps 767 mmHg 54%
    18:00 +19°C° 0 mm 5 mps 767 mmHg 56%
    19:00 +17°C° 0 mm 5 mps 767 mmHg 58%
    20:00 +15°C° 0 mm 4 mps 767 mmHg 60%
    21:00 +14°C° 0 mm 4 mps 767 mmHg 62%
    22:00 +13°C° 0 mm 4 mps 767 mmHg 60%
    23:00 +12°C° 0 mm 4 mps 766 mmHg 59%

    Day after tomorrow, 28 May, Monday

    Time Temperature Precipitation Wind Pressure Humidity
    00:00 +12°C° 0 mm 4 mps 766 mmHg 58%
    01:00 +12°C° 0 mm 4 mps 766 mmHg 57%
    02:00 +11°C° 0 mm 4 mps 766 mmHg 57%
    03:00 +11°C° 0 mm 4 mps 766 mmHg 56%
    04:00 +11°C° 0 mm 4 mps 766 mmHg 58%
    05:00 +11°C° 0 mm 4 mps 766 mmHg 61%
    06:00 +11°C° 0 mm 4 mps 766 mmHg 63%
    07:00 +13°C° 0 mm 4 mps 766 mmHg 59%
    08:00 +15°C° 0 mm 5 mps 766 mmHg 54%
    09:00 +17°C° 0 mm 5 mps 766 mmHg 50%
    10:00 +20°C° 0 mm 5 mps 766 mmHg 47%
    11:00 +21°C° 0 mm 6 mps 766 mmHg 45%
    12:00 +22°C° 0 mm 6 mps 766 mmHg 42%
    13:00 +23°C° 0 mm 5 mps 766 mmHg 41%
    14:00 +23°C° 0 mm 5 mps 765 mmHg 41%
    15:00 +25°C° 0 mm 5 mps 765 mmHg 41%
    16:00 +23°C° 0 mm 4 mps 765 mmHg 46%
    17:00 +23°C° 0 mm 4 mps 765 mmHg 50%
    18:00 +24°C° 0 mm 3 mps 765 mmHg 55%
    19:00 +21°C° 0 mm 3 mps 765 mmHg 58%
    20:00 +19°C° 0 mm 3 mps 765 mmHg 60%
    21:00 +17°C° 0 mm 3 mps 765 mmHg 63%
    22:00 +17°C° 0 mm 3 mps 766 mmHg 67%
    23:00 +17°C° 0 mm 4 mps 766 mmHg 70%

    29 May, Tuesday

    Time Temperature Precipitation Wind Pressure Humidity
    00:00 +15°C° 0 mm 4 mps 766 mmHg 74%
    01:00 +15°C° 0 mm 4 mps 766 mmHg 72%
    02:00 +15°C° 0 mm 5 mps 766 mmHg 71%
    03:00 +15°C° 0 mm 5 mps 766 mmHg 69%
    04:00 +14°C° 0 mm 5 mps 766 mmHg 70%
    05:00 +14°C° 0 mm 5 mps 767 mmHg 71%
    06:00 +13°C° 0 mm 5 mps 767 mmHg 72%
    07:00 +15°C° 0 mm 6 mps 767 mmHg 67%
    08:00 +16°C° 0 mm 6 mps 767 mmHg 62%
    09:00 +18°C° 0 mm 7 mps 767 mmHg 57%
    10:00 +18°C° 0 mm 7 mps 767 mmHg 54%
    11:00 +20°C° 0 mm 7 mps 767 mmHg 50%
    12:00 +21°C° 0 mm 7 mps 767 mmHg 47%
    13:00 +21°C° 0 mm 7 mps 766 mmHg 47%
    14:00 +21°C° 0 mm 7 mps 766 mmHg 47%
    15:00 +22°C° 0 mm 7 mps 766 mmHg 47%
    16:00 +21°C° 0 mm 6 mps 766 mmHg 49%
    17:00 +21°C° 0 mm 6 mps 766 mmHg 52%
    18:00 +20°C° 0 mm 5 mps 766 mmHg 54%
    19:00 +19°C° 0 mm 5 mps 766 mmHg 55%
    20:00 +16°C° 0 mm 5 mps 766 mmHg 57%
    21:00 +15°C° 0 mm 4 mps 766 mmHg 58%
    22:00 +14°C° 0 mm 4 mps 766 mmHg 57%
    23:00 +13°C° 0 mm 4 mps 766 mmHg 56%

    30 May, Wednesday

    Time Temperature Precipitation Wind Pressure Humidity
    00:00 +13°C° 0 mm 4 mps 766 mmHg 55%
    01:00 +12°C° 0 mm 4 mps 766 mmHg 56%
    02:00 +12°C° 0 mm 4 mps 766 mmHg 56%
    03:00 +12°C° 0 mm 4 mps 766 mmHg 57%
    04:00 +12°C° 0 mm 4 mps 766 mmHg 60%
    05:00 +12°C° 0 mm 4 mps 766 mmHg 62%
    06:00 +12°C° 0 mm 4 mps 765 mmHg 65%
    07:00 +14°C° 0 mm 4 mps 765 mmHg 60%
    08:00 +16°C° 0 mm 5 mps 765 mmHg 54%
    09:00 +19°C° 0 mm 5 mps 765 mmHg 49%
    10:00 +20°C° 0 mm 5 mps 765 mmHg 47%
    11:00 +21°C° 0 mm 5 mps 765 mmHg 45%
    12:00 +23°C° 0 mm 5 mps 765 mmHg 44%
    13:00 +23°C° 0 mm 5 mps 764 mmHg 44%
    14:00 +25°C° 0 mm 5 mps 764 mmHg 43%
    15:00 +25°C° 0 mm 5 mps 763 mmHg 43%
    16:00 +25°C° 0 mm 4 mps 763 mmHg 47%
    17:00 +25°C° 0 mm 4 mps 763 mmHg 51%
    18:00 +25°C° 0 mm 3 mps 763 mmHg 54%
    19:00 +22°C° 0 mm 3 mps 763 mmHg 57%
    20:00 +20°C° 0 mm 3 mps 763 mmHg 60%
    21:00 +18°C° 0 mm 2 mps 763 mmHg 63%
    22:00 +18°C° 0 mm 3 mps 763 mmHg 63%
    23:00 +17°C° 0 mm 3 mps 763 mmHg 64%

    31 May, Thursday

    Time Temperature Precipitation Wind Pressure Humidity
    00:00 +17°C° 0 mm 3 mps 763 mmHg 64%
    01:00 +16°C° 0 mm 3 mps 762 mmHg 66%
    02:00 +16°C° 0 mm 3 mps 762 mmHg 68%
    03:00 +16°C° 0 mm 3 mps 762 mmHg 70%
    04:00 +16°C° 0 mm 3 mps 762 mmHg 72%
    05:00 +16°C° 0 mm 2 mps 762 mmHg 74%
    06:00 +17°C° 0 mm 2 mps 762 mmHg 76%
    07:00 +19°C° 0 mm 3 mps 762 mmHg 70%
    08:00 +21°C° 0 mm 3 mps 762 mmHg 64%
    09:00 +24°C° 0 mm 3 mps 762 mmHg 58%
    10:00 +25°C° 0 mm 3 mps 762 mmHg 54%
    11:00 +26°C° 0 mm 3 mps 761 mmHg 50%
    12:00 +27°C° 0 mm 3 mps 761 mmHg 46%
    13:00 +27°C° 0 mm 3 mps 760 mmHg 45%
    14:00 +28°C° 0 mm 3 mps 760 mmHg 43%
    15:00 +28°C° 0 mm 3 mps 760 mmHg 41%
    16:00 +28°C° 0 mm 2 mps 759 mmHg 44%
    17:00 +28°C° 0 mm 2 mps 759 mmHg 47%
    18:00 +28°C° 0 mm 2 mps 759 mmHg 50%
    19:00 +26°C° 0 mm 2 mps 759 mmHg 53%
    20:00 +24°C° 0 mm 1 mps 759 mmHg 56%
    21:00 +22°C° 0 mm 1 mps 759 mmHg 59%
    22:00 +22°C° 0 mm 1 mps 759 mmHg 61%
    23:00 +20°C° 0 mm 2 mps 759 mmHg 64%
    Show more